Flag for Germany Weather past 2 weeks in Gotha, Thuringia, Germany

Now
45 °F

Overcast.


Feels Like: 40 °F
Forecast: 38 / 50 °F
Wind: 9 mph from West

Location: Erfurt-Bindersleben

Current Time: Mar 27, 2015 at 11:54:16 AM

Latest Report: Mar 27, 2015 at 11:00 AM


Visibility: 16 mi

Pressure: 29.96 "Hg

Humidity: 69%

Dew point: 36 °F

Location of GothaLocation

Historic Weather in Gotha — Graph

°F

Gotha temperature yesterday

Maximum temperature yesterday: 46 °F (at 3:00 PM)
Minimum temperature yesterday: 40 °F (at 11:00 PM)
Average temperature yesterday: 43 °F

Past Weeks' High & Low Weather Summary

 TemperatureHumidityPressure
High62 °F (Mar 25, 4:00 PM)100% (Mar 13, 5:00 AM)30.51 "Hg (Mar 13, 5:00 AM)
Low27 °F (Mar 23, 6:00 AM)32% (Mar 20, 3:00 PM)29.62 "Hg (Mar 25, 4:00 PM)
Average40 °F81%30.16 "Hg
* Reported Mar 12 11:00 AM — Mar 27 11:00 AM, Gotha, Weather by CustomWeather, © 2015

Note: Actual official high and low records may vary slightly from our data, if they occured in-between our weather recording intervals... More about our weather records

Advertising

Gotha weather history for previous 24 hours

 ConditionsComfort  
Time TempWeatherWind HumidityBarometerVisibility
11:00 AM
Fri, Mar 27
45 °FOvercast.9 mph69%29.96 "Hg16 mi
10:00 AM46 °FPartly sunny.8 mph66%29.94 "Hg16 mi
9:00 AM44 °FPartly sunny.8 mph75%29.93 "Hg16 mi
8:00 AM41 °FPartly sunny.6 mph85%29.92 "Hg12 mi
7:00 AM39 °FPartly sunny.7 mph87%29.91 "Hg12 mi
6:00 AM37 °FPassing clouds.6 mph91%29.88 "Hg12 mi
5:00 AM39 °FPassing clouds.7 mph89%29.86 "Hg10 mi
4:00 AM39 °FLight rain. Overcast.9 mph89%29.83 "Hg9 mi
3:00 AM40 °FLight rain. Overcast.7 mph86%29.83 "Hg9 mi
2:00 AM40 °FOvercast.6 mph86%29.82 "Hg9 mi
1:00 AM39 °FLight rain. Overcast.7 mph87%29.82 "Hg9 mi
12:00 AM39 °FOvercast.5 mph88%29.82 "Hg9 mi
11:00 PM
Thu, Mar 26
40 °FLight rain. Overcast.6 mph89%29.82 "Hg9 mi
10:00 PM43 °FOvercast.5 mph77%29.80 "Hg9 mi
9:00 PM42 °FOvercast.6 mph78%29.80 "Hg9 mi
8:00 PM42 °FOvercast.3 mph78%29.79 "Hg9 mi
7:00 PM43 °FOvercast.5 mph76%29.78 "Hg7 mi
6:00 PM44 °FOvercast.3 mph77%29.77 "Hg7 mi
5:00 PM45 °FOvercast.5 mph75%29.77 "Hg9 mi
4:00 PM46 °FOvercast.2 mph69%29.77 "Hg9 mi
3:00 PM46 °FOvercast.3 mph69%29.77 "Hg11 mi
2:00 PM44 °FOvercast.5 mph74%29.78 "Hg10 mi
1:00 PM44 °FOvercast.6 mph74%29.78 "Hg10 mi
12:00 PM43 °FOvercast.6 mph80%29.78 "Hg6 mi
11:00 AM42 °FDrizzle. Overcast.5 mph85%29.79 "Hg4 mi
Weather by CustomWeather, © 2015

See weather overviewHow to use our weather pages